Regional Weather Roundup
Issued by NWS

Home | Current Version | Previous Version | Graphics & Text | Print | Product List | Glossary On
Versions: 1 2 3 4 5 6 7 8 9 10 11 12 13 14 15 16 17 18 19 20 21 22 23 24 25 26 27 28 29 30 31 32 33 34 35 36 37 38 39 40 41 42 43 44 45 46 47 48 49 50
000
ASUS45 KPSR 290200
RWRAZ

PRELIMINARY ARIZONA REGIONAL HOURLY WEATHER ROUNDUP
NATIONAL WEATHER SERVICE PHOENIX AZ
700 PM MST MON JUL 28 2014

NOTE: FAIR INDICATES FEW OR NO CLOUDS BELOW 12,000 FEET WITH NO
SIGNIFICANT WEATHER AND/OR OBSTRUCTIONS TO VISIBILITY.

AZZ001>003-036-290300-
NORTHWEST ARIZONA

CITY           SKY/WX    TMP DP  RH WIND       PRES   REMARKS
KINGMAN        PTCLDY    84  56  38 N10       30.13S
$$

AZZ004>008-015-016-018-290300-
NORTH CENTRAL ARIZONA

CITY           SKY/WX    TMP DP  RH WIND       PRES   REMARKS
GRAND CANYON   MOCLDY    73  48  41 W6        30.36F
WILLIAMS       MOCLDY    68  57  68 CALM      30.44S
PRESCOTT       MOCLDY    75  57  53 W9        30.25R
FLAGSTAFF      MOCLDY    70  49  47 VRB5      30.39S
PAYSON         CLOUDY    73  55  53 N13       30.27R THUNDER
PAGE           MOCLDY    83  53  35 SE10      30.18R
$$

AZZ009>014-017-290300-
NORTHEAST ARIZONA

CITY           SKY/WX    TMP DP  RH WIND       PRES   REMARKS
WINSLOW        NOT AVBL
SAINT JOHNS    CLOUDY    72  59  63 SE7       30.28F
WINDOW ROCK    CLOUDY    70  52  52 E10       30.38R
$$

AZZ023-290300-
GREATER PHOENIX AREA

CITY           SKY/WX    TMP DP  RH WIND       PRES   REMARKS
PHOENIX        PTCLDY   104  56  20 SW5       29.87S HX 103
BUCKEYE          N/A    100  59  25 S5        29.89S HX 100
GLENDALE       PTCLDY   104  57  21 S9        29.89F HX 103
DEER VALLEY    CLEAR    100  55  22 VRB6      29.91S
SCOTTSDALE     CLEAR    101  56  22 SW3       29.93S HX 100
MESA-FALCON    PTCLDY   102  55  21 S9        29.90F HX 101
MESA-GATEWAY   PTCLDY   100  59  25 SW8       29.93S HX 100
CHANDLER       MOCLDY   102  59  24 S7        29.90F HX 102
$$

AZZ027-028-290300-
SOUTHWEST MARICOPA COUNTY AND PINAL COUNTY

CITY           SKY/WX    TMP DP  RH WIND       PRES   REMARKS
CASA GRANDE    CLEAR    100  55  22 W5        29.93S
$$

AZZ503-504-507>509-290300-
SOUTHEAST ARIZONA

CITY           SKY/WX    TMP DP  RH WIND       PRES   REMARKS
TUCSON         PTCLDY    92  61  35 S6        30.05S
DAVIS-MONTHAN  CLEAR     91  61  36 S5        30.04S
RYAN FIELD       N/A     93  61  33 E8        30.03F
NOGALES        PTCLDY    85  61  44 CALM      30.15R
SIERRA VISTA   MOCLDY    81  59  47 W8        30.22R
SAFFORD        PTCLDY    89  57  33 W8        30.06R
$$

AZZ020-021-025-026-031-290300-
SOUTHWEST ARIZONA

CITY           SKY/WX    TMP DP  RH WIND       PRES   REMARKS
YUMA           NOT AVBL
$$

CAZ031-033-041-043-047-048-061-290300-
SOUTHERN CALIFORNIA

CITY           SKY/WX    TMP DP  RH WIND       PRES   REMARKS
DOWNTOWN L.A.  SUNNY     80  50  34 W7        29.97S
L.A. AIRPORT   MOSUNNY   72  65  78 W16       29.99S
SAN DIEGO      PTCLDY    79  59  50 NW7       29.99R
BURBANK        SUNNY     85  44  23 S7        29.98S
ONTARIO        PTCLDY    89  47  23 SW14      29.98R
RIVERSIDE      PTCLDY    88  53  30 W12       29.98R
PALM SPRINGS   PTCLDY   105  47  14 NW16      29.87S HX 101
EL CENTRO NAS  PTCLDY   105  58  21 NE6       29.80S HX 105
IMPERIAL       PTCLDY   105  58  21 E6        29.80S HX 105
BLYTHE           N/A    N/A N/A N/A MISG      29.82S
$$

NVZ020-UTZ003-290300-
SOUTHERN NEVADA-UTAH

CITY           SKY/WX    TMP DP  RH WIND       PRES   REMARKS
LAS VEGAS      NOT AVBL
SALT LAKE CITY CLOUDY    68  63  84 S10       30.20F
$$

NMZ009-TXZ055-290300-
NEW MEXICO-WEST TEXAS

CITY           SKY/WX    TMP DP  RH WIND       PRES   REMARKS
ALBUQUERQUE    MOCLDY    76  54  46 SE18      30.28R
EL PASO        PTCLDY    90  53  28 E12       30.11S
$$


........................KEY........................
SKY/WX - SKY CONDITION/WEATHER
TMP    - TEMPERATURE IN FAHRENHEIT
DP     - DEW POINT IN FAHRENHEIT
RH     - RELATIVE HUMIDITY IN PERCENT
WIND   - DIRECTION AND SPEED IN MILES PER HOUR (MPH)
VRB    - VARIABLE WIND DIRECTION
PRES   - MEAN SEA LEVEL PRESSURE IN INCHES OF MERCURY
         F - FALLING PRESSURE   R - RISING PRESSURE
         S - STEADY PRESSURE
VSB    - VISIBILITY IN MILES
HX     - HEAT INDEX IN FAHRENHEIT
WCI    - WIND CHILL INDEX IN FAHRENHEIT
TC     - TEMPERATURE IN CELSIUS WHICH IS ALSO KNOWN AS
         TEMPERATURE IN CENTIGRADE
AFB    - AIR FORCE BASE
         LUKE AFB IS LUKE AIR FORCE BASE
         DAVIS-MONTHAN IS DAVIS-MONTHAN AIR FORCE BASE
NAS    - NAVAL AIR STATION
         EL CENTRO NAS IS EL CENTRO NAVAL AIR STATION
N/A    - NOT AVAILABLE



USA.gov is the U.S. government's official web portal to all federal, state and local government web resources and services.